ONEWEB-0034, 45454

Orbit data source: Space-Track

ONEWEB-0034, 45454 is a payload satellite owned by One Web (UK) in LEO that was launched on Sat, 21 Mar 2020 UTC via a SOYUZ-2-1B launch vehicle from the Tyuratam Missile And Space Complex (TTMTR). Payload-class satellites include a variety of spacecraft equipped with specific instruments for various scientific and technological missions. These include communications satellites like Starlink; space stations such as the ISS; scientific satellites like the Hubble; Earth observation satellites from companies like Planet Labs, Umbra, and HawkEye 360; GPS; miniature CubeSats for education and research; and military/defense satellites.

Loading next visibility...
Identifier
45454, 2020-020AG
Orbit
LEO
Country
Flag of UKUK
Related business
Manufacturer
One Web
Mission
Operational Commercial Communications
Bus & Motor
ARROW, Unknown motor
Mass
148 kg wet, ~140 kg dry
Launch date (UTC)
2020-03-21 (6 years ago)
Launch vehicle
SOYUZ-2-1B
Launch site
Tyuratam Missile And Space Complex (TTMTR)
Object type
Payload
Rocket body
Debris
Shape & HBR
Trap Box + 2 Pan, 6.7 m
Radar Cross Section
3.464 m², Large (>1 m²)

Expand to show TLE details & history
Last TLE update: 14 hours ago

TLE from 14 hours ago
0 ONEWEB-0034
1 45454U 20020AG  26124.79232095  .00000480  00000-0  13289-2 0  9995
2 45454  87.8931  29.6891 0001816  77.9941 282.1391 13.10933349296906
Epoch: 2026-05-04T19:00Z
TLE epoch observation values (Epoch: 2026-05-04T19:00:56.530Z)
Latitude
0.00009°
Longitude
-118.22287°
Altitude
1,222.149 km
Speed
7.243 km/s
True Right ascension
01h 58m 45s
True Declination
0° 00' 00"
Sunlit
Object was in daylight at epoch
Visualization orbit readout
Latitude
Unknown
Longitude
Unknown
Altitude
Unknown
Speed
Unknown
Apparent Right ascension
Unknown
Apparent Declination
Unknown
Sunlit
N/A
Visualization observer readout
Local Sidereal Time
16:28:56
Azimuth
Unknown
Elevation
Unknown
Doppler factor
Unknown
Orbital elements
Apogee altitude
1,218.049 km
Perigee altitude
1,215.29 km
Semi-major axis
7,594.807 km
Eccentricity
0.00018
Inclination
87.8931°
RAAN
29.6891°
Arg. of periapsis
77.9941°
True anomaly
282.11875°
Mean anomaly
282.1391°
Eccentric anomaly
282.12893°
Mean motion
3.2792 °/min
Orbital period
109.78 mins
BSTAR
0.0013289
Loading maneuver chart data...
Computing Atmospheric mass density...
Loading historical data...
Loading historical data...
Loading historical data...
Loading historical data...
Loading historical data...
Loading historical data...
Loading historical data...

Documentation

Showing up to 5 results
|